Weather History for KLSB - January, 2014

Change the Weather History Date:

Tuesday, January 14, 2014

  Actual Average Record
Temperature  
Mean Temperature 42 °F -  
Max Temperature 60 °F 60 °F 60 °F (2014)
Min Temperature 23 °F 24 °F 12 °F (2013)
Degree Days  
Heating Degree Days 24    
Moisture  
Dew Point 9 °F    
Average Humidity 27    
Maximum Humidity 46    
Minimum Humidity 13    
Precipitation  
Precipitation 0.00 in - - ()
Sea Level Pressure  
Sea Level Pressure 30.31 in    
Wind  
Wind Speed 7 mph (West)    
Max Wind Speed 13 mph    
Max Gust Speed 17 mph    
Visibility 10 miles    
Events      
Averages and records for this station are not official NWS values.
T = Trace of Precipitation, MM = Missing Value Source: NWS Daily Summary

Daily Weather History Graph

Daily Weather History Graph

Search for Another Location

Airport or City:

Trip Planner

Search our weather history database for the weather conditions in past years. The results will help you decide how hot, cold, wet, or windy it might be!

Date:

Astronomy

Jan. 14, 2014 Rise Set
Actual Time 7:16 AM MST 5:31 PM MST
Civil Twilight 6:49 AM MST 5:58 PM MST
Nautical Twilight 6:19 AM MST 6:28 PM MST
Astronomical Twilight 5:50 AM MST 6:57 PM MST
Moon 4:37 PM MST (1/14) 5:54 AM MST (1/14)
Length of Visible Light 11h 08m
Length of Day
10h 15m
Waxing Gibbous, 98% of the Moon is Illuminated
Jan 14
Waxing Gibbous
Jan 15
Full
Jan 23
Last Quarter
Jan 30
New
Feb 6
First Quarter

Hourly Weather History & Observations

Time (MST) Temp. Windchill Dew Point Humidity Pressure Visibility Wind Dir Wind Speed Gust Speed Precip Events Conditions
12:15 AM 35.6 °F 29.9 °F 5.0 °F 28% 30.28 in 10.0 mi NW 6.9 mph - N/A   Clear
12:35 AM 33.8 °F 26.4 °F 5.0 °F 30% 30.28 in 10.0 mi WNW 9.2 mph - N/A   Clear
12:55 AM 33.8 °F 26.4 °F 5.0 °F 30% 30.28 in 10.0 mi WNW 9.2 mph - N/A   Clear
1:15 AM 33.8 °F 27.0 °F 6.8 °F 32% 30.28 in 10.0 mi WNW 8.1 mph - N/A   Clear
1:35 AM 33.8 °F 26.4 °F 6.8 °F 32% 30.28 in 10.0 mi WNW 9.2 mph - N/A   Clear
1:55 AM 33.8 °F 26.4 °F 6.8 °F 32% 30.28 in 10.0 mi West 9.2 mph - N/A   Clear
2:15 AM 33.8 °F 27.0 °F 6.8 °F 32% 30.27 in 10.0 mi West 8.1 mph - N/A   Clear
2:35 AM 33.8 °F 26.4 °F 6.8 °F 32% 30.27 in 10.0 mi WNW 9.2 mph - N/A   Clear
2:55 AM 35.6 °F 28.6 °F 6.8 °F 30% 30.28 in 10.0 mi West 9.2 mph - N/A   Clear
3:15 AM 33.8 °F 27.7 °F 6.8 °F 32% 30.28 in 10.0 mi West 6.9 mph - N/A   Clear
3:35 AM 30.2 °F 23.4 °F 6.8 °F 37% 30.27 in 10.0 mi West 6.9 mph - N/A   Clear
3:55 AM 30.2 °F 21.3 °F 5.0 °F 34% 30.26 in 10.0 mi WNW 10.4 mph - N/A   Clear
4:15 AM 32.0 °F 23.6 °F 6.8 °F 35% 30.26 in 10.0 mi West 10.4 mph - N/A   Clear
4:35 AM 33.8 °F 27.0 °F 8.6 °F 35% 30.26 in 10.0 mi West 8.1 mph - N/A   Clear
4:55 AM 32.0 °F 23.0 °F 8.6 °F 38% 30.25 in 10.0 mi West 11.5 mph - N/A   Clear
5:15 AM 35.6 °F 27.1 °F 8.6 °F 33% 30.25 in 10.0 mi West 12.7 mph - N/A   Clear
5:35 AM 35.6 °F 27.5 °F 8.6 °F 33% 30.26 in 10.0 mi West 11.5 mph - N/A   Clear
5:55 AM 33.8 °F 27.0 °F 8.6 °F 35% 30.27 in 10.0 mi West 8.1 mph - N/A   Clear
6:15 AM 30.2 °F - 5.0 °F 34% 30.28 in 10.0 mi Calm Calm - N/A   Clear
6:35 AM 23.0 °F 15.8 °F 5.0 °F 46% 30.28 in 10.0 mi WNW 5.8 mph - N/A   Clear
6:55 AM 30.2 °F 20.8 °F 8.6 °F 40% 30.28 in 10.0 mi West 11.5 mph - N/A   Clear
7:15 AM 30.2 °F 21.9 °F 8.6 °F 40% 30.29 in 10.0 mi West 9.2 mph - N/A   Clear
7:35 AM 32.0 °F 23.6 °F 8.6 °F 38% 30.29 in 10.0 mi WNW 10.4 mph - N/A   Clear
7:55 AM 33.8 °F 25.3 °F 10.4 °F 38% 30.30 in 10.0 mi West 11.5 mph - N/A   Clear
8:15 AM 35.6 °F 32.8 °F 10.4 °F 35% 30.32 in 10.0 mi NNE 3.5 mph - N/A   Clear
8:35 AM 35.6 °F 32.8 °F 10.4 °F 35% 30.33 in 10.0 mi NW 3.5 mph - N/A   Clear
8:55 AM 37.4 °F 33.8 °F 10.4 °F 33% 30.34 in 10.0 mi WNW 4.6 mph - N/A   Clear
9:15 AM 42.8 °F 38.6 °F 10.4 °F 27% 30.35 in 10.0 mi WNW 6.9 mph - N/A   Clear
9:35 AM 46.4 °F 41.9 °F 10.4 °F 23% 30.35 in 10.0 mi West 9.2 mph - N/A   Clear
9:55 AM 46.4 °F 41.9 °F 10.4 °F 23% 30.35 in 10.0 mi WNW 9.2 mph - N/A   Clear
10:15 AM 48.2 °F - 10.4 °F 22% 30.35 in 10.0 mi West 9.2 mph - N/A   Clear
10:35 AM 50.0 °F - 10.4 °F 20% 30.35 in 10.0 mi West 8.1 mph - N/A   Clear
10:55 AM 50.0 °F - 10.4 °F 20% 30.35 in 10.0 mi WNW 10.4 mph - N/A   Clear
11:15 AM 50.0 °F - 10.4 °F 20% 30.33 in 10.0 mi West 12.7 mph - N/A   Clear
11:35 AM 51.8 °F - 12.2 °F 21% 30.32 in 10.0 mi West 12.7 mph 17.3 mph N/A   Clear
11:55 AM 53.6 °F - 12.2 °F 19% 30.32 in 10.0 mi West 12.7 mph 16.1 mph N/A   Clear
12:15 PM 55.4 °F - 12.2 °F 18% 30.31 in 10.0 mi West 10.4 mph 16.1 mph N/A   Clear
12:35 PM 55.4 °F - 12.2 °F 18% 30.30 in 10.0 mi WNW 11.5 mph 17.3 mph N/A   Clear
12:55 PM 57.2 °F - 12.2 °F 17% 30.30 in 10.0 mi WNW 10.4 mph - N/A   Clear
1:15 PM 57.2 °F - 10.4 °F 16% 30.29 in 10.0 mi West 8.1 mph - N/A   Clear
1:35 PM 59.0 °F - 8.6 °F 14% 30.28 in 10.0 mi WNW 6.9 mph - N/A   Clear
1:55 PM 59.0 °F - 10.4 °F 15% 30.28 in 10.0 mi North 4.6 mph - N/A   Clear
2:15 PM 59.0 °F - 10.4 °F 15% 30.28 in 10.0 mi Calm Calm - N/A   Clear
2:35 PM 59.0 °F - 8.6 °F 14% 30.28 in 10.0 mi Calm Calm - N/A   Clear
2:55 PM 60.8 °F - 8.6 °F 13% 30.28 in 10.0 mi NNW 4.6 mph - N/A   Clear
3:35 PM 60.8 °F - 8.6 °F 13% 30.28 in 10.0 mi Calm Calm - N/A   Clear
4:15 PM 60.8 °F - 8.6 °F 13% 30.29 in 10.0 mi Calm Calm - N/A   Clear
4:35 PM 60.8 °F - 8.6 °F 13% 30.29 in 10.0 mi Calm Calm - N/A   Clear
4:55 PM 60.8 °F - 8.6 °F 13% 30.30 in 10.0 mi Calm Calm - N/A   Clear
5:15 PM 59.0 °F - 10.4 °F 15% 30.30 in 10.0 mi Calm Calm - N/A   Clear
5:35 PM 57.2 °F - 10.4 °F 16% 30.30 in 10.0 mi Calm Calm - N/A   Clear
5:55 PM 50.0 °F - 8.6 °F 19% 30.31 in 10.0 mi West 3.5 mph - N/A   Clear
6:15 PM 44.6 °F 41.4 °F 8.6 °F 23% 30.32 in 10.0 mi WSW 5.8 mph - N/A   Clear
6:35 PM 44.6 °F 40.7 °F 8.6 °F 23% 30.33 in 10.0 mi WSW 6.9 mph - N/A   Clear
6:55 PM 46.4 °F - 10.4 °F 23% 30.33 in 10.0 mi Calm Calm - N/A   Clear
7:15 PM 44.6 °F - 10.4 °F 25% 30.34 in 10.0 mi Calm Calm - N/A   Clear
7:35 PM 42.8 °F - 10.4 °F 27% 30.34 in 10.0 mi Calm Calm - N/A   Clear
7:55 PM 42.8 °F - 8.6 °F 25% 30.34 in 10.0 mi Calm Calm - N/A   Clear
8:15 PM 37.4 °F - 8.6 °F 30% 30.35 in 10.0 mi Calm Calm - N/A   Clear
8:35 PM 41.0 °F 39.0 °F 8.6 °F 26% 30.35 in 10.0 mi South 3.5 mph - N/A   Clear
8:55 PM 35.6 °F 31.7 °F 8.6 °F 33% 30.35 in 10.0 mi SW 4.6 mph - N/A   Clear
9:15 PM 35.6 °F - 8.6 °F 33% 30.35 in 10.0 mi Calm Calm - N/A   Clear
9:35 PM 33.8 °F 30.8 °F 8.6 °F 35% 30.36 in 10.0 mi ESE 3.5 mph - N/A   Clear
9:55 PM 32.0 °F 28.7 °F 8.6 °F 38% 30.36 in 10.0 mi South 3.5 mph - N/A   Clear
10:15 PM 33.8 °F 28.6 °F 8.6 °F 35% 30.36 in 10.0 mi SSE 5.8 mph - N/A   Clear
10:35 PM 33.8 °F 27.0 °F 8.6 °F 35% 30.36 in 10.0 mi SSE 8.1 mph - N/A   Clear
10:55 PM 33.8 °F 27.0 °F 8.6 °F 35% 30.36 in 10.0 mi SSE 8.1 mph - N/A   Clear
11:15 PM 32.0 °F 25.6 °F 8.6 °F 38% 30.36 in 10.0 mi SSE 6.9 mph - N/A   Clear
11:35 PM 32.0 °F 25.6 °F 8.6 °F 38% 30.36 in 10.0 mi SE 6.9 mph - N/A   Clear
11:55 PM 28.4 °F 23.3 °F 5.0 °F 37% 30.36 in 10.0 mi SSE 4.6 mph - N/A   Clear